Cloud_Cover
5 31 66 71 82 74 58 90 83 8 14 24 96 38 5 5 5 5 5 1 0 0 0 0 0 0 0 5 61 96 56 81 100 100 100 100 100 100 100 100 100 100 86
5 100 100 95 59 100 100 25 60 5 25 100 66 5 5 5 5 5 5 0 0 0 0 0 0 0 0 5 5 61 38 100 100 100 100 93 83 100 57 51 100 100 100
100 100 100 100 100 97 20 5 40 5 7 6 34 51 26 14 5 5 14 5 0 0 0 0 0 5 66 100 100 99 100 100 100 100 7 5 17 96 100 92 98 96 96
100 100 99 100 100 93 48 5 73 5 5 5 24 41 18 5 5 5 5 3 3 0 0 0 0 22 100 100 100 100 100 87 100 52 5 77 100 100 78 100 82 100 100
100 56 5 90 93 100 59 60 95 5 8 40 48 54 43 5 5 5 5 5 2 0 0 1 30 99 100 100 100 100 100 100 100 6 91 78 65 66 73 100 41 100 100
92 5 5 62 27 56 100 100 52 5 5 20 15 98 15 10 5 5 5 5 3 3 4 5 37 100 100 100 100 100 100 30 85 56 84 5 80 100 99 83 100 100 100
5 5 5 60 72 100 100 100 21 6 6 48 72 100 60 91 16 51 96 5 3 5 5 5 25 99 100 100 100 100 100 100 97 100 94 96 100 100 100 100 100 100 100
5 15 5 68 38 100 100 100 12 42 91 38 69 36 99 93 56 90 58 19 5 5 4 13 100 100 100 94 100 100 100 99 51 90 70 97 100 100 100 100 100 100 100
0 3 4 5 36 96 100 33 10 12 31 7 61 95 100 98 15 99 17 5 5 5 2 5 100 100 100 1 77 85 100 11 83 14 42 100 100 100 85 100 100 100 100
0 0 0 4 11 49 43 56 42 5 48 5 100 100 90 100 96 12 28 5 6 3 1 5 38 88 24 5 80 96 5 5 11 28 94 26 21 69 99 100 100 100 100
0 0 0 5 5 5 8 6 7 35 76 67 100 100 100 87 60 35 5 5 5 0 0 0 0 0 21 98 23 5 5 18 67 91 91 98 100 97 100 77 86 100 100
0 0 0 5 5 5 10 32 8 8 100 64 100 96 73 6 23 5 5 2 0 5 0 0 0 3 25 7 5 5 96 100 98 80 54 31 90 95 100 100 100 100 100
0 0 0 5 5 5 11 5 49 69 67 100 100 98 12 89 5 5 4 5 0 0 0 3 5 6 34 5 6 17 29 96 100 100 100 100 100 100 100 100 100 100 100
0 0 0 4 5 5 9 92 98 96 100 100 76 72 84 66 60 5 2 0 4 0 4 6 10 6 0 5 16 21 3 50 100 100 100 100 100 92 99 100 100 100 100
0 0 0 4 6 22 99 100 98 100 100 14 98 66 46 5 5 5 5 4 4 4 5 45 100 12 5 5 5 2 1 5 7 99 100 100 100 97 100 100 100 100 100
0 1 7 89 96 100 100 100 100 100 10 42 44 37 5 5 5 5 5 5 5 6 76 100 100 70 25 5 5 5 5 58 100 100 100 100 100 100 100 100 100 100 100
5 5 84 100 100 100 100 100 98 55 89 84 94 34 5 5 5 5 5 5 5 60 100 65 66 53 5 5 5 5 18 100 100 100 100 100 100 100 100 100 100 100 100
19 79 89 100 100 100 99 100 38 62 94 60 6 44 33 48 38 37 5 5 14 100 92 64 66 33 5 5 19 31 100 99 84 94 99 100 100 100 100 100 100 100 100
95 100 100 100 100 100 100 91 100 44 16 53 52 15 22 5 5 41 11 5 36 100 86 77 31 26 91 83 98 100 100 100 100 99 100 100 90 100 100 100 100 100 100
98 100 100 100 100 100 100 100 100 100 73 72 74 60 21 19 54 59 6 5 7 7 5 27 100 13 70 100 100 100 100 100 100 99 100 100 100 100 100 100 100 100 100
100 100 100 100 100 100 100 100 69 86 99 66 80 79 96 43 60 20 98 48 5 5 5 18 8 71 77 100 100 100 100 100 94 100 100 100 100 100 99 100 97 100 100
99 100 100 100 100 66 100 100 99 99 100 91 84 62 15 5 30 95 48 5 5 5 5 5 8 90 99 100 100 100 100 100 85 88 100 100 100 100 100 100 100 99 95
100 100 100 100 99 99 99 100 100 94 68 59 53 24 89 94 100 77 5 5 5 5 5 5 5 82 100 100 99 100 100 100 91 99 100 94 96 94 100 100 100 100 100
100 100 100 100 100 100 100 100 100 100 100 94 77 100 68 45 23 5 5 5 5 5 5 5 6 91 100 100 100 100 100 100 100 99 100 100 100 100 100 93 100 100 100
100 100 100 100 100 100 100 100 100 96 92 91 100 100 91 97 8 5 5 5 5 5 5 5 20 97 100 100 100 100 100 100 99 100 100 100 100 100 100 100 100 86 99
100 100 100 100 100 100 100 96 100 100 99 100 84 92 100 75 5 2 3 5 5 5 5 5 5 90 100 100 100 100 100 100 100 100 100 100 100 100 100 100 97 100 100